• In United Kingdom
  • List of Countries
  • For 7 days
  • Water Temperature
  • Satellite Maps
  • Weather Map
  • Weather Widgets
  • user-avatar
    Login

    Hourly Weather Brisbane

    Today, 20 September, Wednesday

    Time Temperature Precipitation Wind Pressure Humidity
    00:00 +20°C° 0 mm 3 mps 761 mmHg 64%
    01:00 +19°C° 0 mm 3 mps 761 mmHg 63%
    02:00 +19°C° 0 mm 3 mps 761 mmHg 60%
    03:00 +18°C° 0 mm 3 mps 761 mmHg 57%
    04:00 +17°C° 0 mm 3 mps 761 mmHg 55%
    05:00 +18°C° 0 mm 3 mps 761 mmHg 55%
    06:00 +18°C° 0 mm 3 mps 762 mmHg 54%
    07:00 +19°C° 0 mm 4 mps 762 mmHg 53%
    08:00 +21°C° 0 mm 3 mps 762 mmHg 48%
    09:00 +25°C° 0 mm 3 mps 762 mmHg 44%
    10:00 +28°C° 0 mm 3 mps 762 mmHg 40%
    11:00 +29°C° 0 mm 3 mps 761 mmHg 36%
    12:00 +30°C° 0 mm 4 mps 761 mmHg 32%
    13:00 +32°C° 0 mm 4 mps 760 mmHg 28%
    14:00 +30°C° 0 mm 4 mps 760 mmHg 34%
    15:00 +28°C° 0 mm 5 mps 760 mmHg 41%
    16:00 +27°C° 0 mm 5 mps 759 mmHg 47%
    17:00 +25°C° 0 mm 5 mps 760 mmHg 56%
    18:00 +22°C° 0 mm 4 mps 760 mmHg 66%
    19:00 +20°C° 0 mm 4 mps 761 mmHg 76%
    20:00 +19°C° 0 mm 3 mps 762 mmHg 77%
    21:00 +19°C° 0 mm 3 mps 762 mmHg 79%
    22:00 +19°C° 0 mm 2 mps 763 mmHg 81%
    23:00 +19°C° 0 mm 2 mps 762 mmHg 82%

    Tomorrow, 21 September, Thursday

    Time Temperature Precipitation Wind Pressure Humidity
    00:00 +18°C° 0 mm 2 mps 762 mmHg 83%
    01:00 +19°C° 0 mm 1 mps 762 mmHg 83%
    02:00 +19°C° 0 mm 1 mps 762 mmHg 84%
    03:00 +19°C° 0 mm 1 mps 762 mmHg 85%
    04:00 +19°C° 0 mm 1 mps 762 mmHg 86%
    05:00 +19°C° 0 mm 1 mps 762 mmHg 84%
    06:00 +20°C° 0 mm 1 mps 763 mmHg 81%
    07:00 +20°C° 0 mm 1 mps 763 mmHg 79%
    08:00 +21°C° 0 mm 2 mps 763 mmHg 72%
    09:00 +23°C° 0 mm 2 mps 763 mmHg 65%
    10:00 +25°C° 0 mm 2 mps 763 mmHg 58%
    11:00 +26°C° 0 mm 3 mps 762 mmHg 54%
    12:00 +27°C° 0 mm 3 mps 761 mmHg 50%
    13:00 +28°C° 0 mm 3 mps 761 mmHg 46%
    14:00 +27°C° 0 mm 3 mps 760 mmHg 48%
    15:00 +27°C° 0 mm 4 mps 760 mmHg 51%
    16:00 +26°C° 0 mm 4 mps 760 mmHg 54%
    17:00 +25°C° 0 mm 4 mps 760 mmHg 63%
    18:00 +22°C° 0 mm 4 mps 760 mmHg 72%
    19:00 +20°C° 0 mm 4 mps 761 mmHg 81%
    20:00 +20°C° 0 mm 4 mps 761 mmHg 84%
    21:00 +20°C° 0 mm 3 mps 762 mmHg 87%
    22:00 +19°C° 0 mm 3 mps 762 mmHg 91%
    23:00 +20°C° 0 mm 3 mps 762 mmHg 90%

    Day after tomorrow, 22 September, Friday

    Time Temperature Precipitation Wind Pressure Humidity
    00:00 +20°C° 0 mm 3 mps 762 mmHg 90%
    01:00 +20°C° 0 mm 3 mps 762 mmHg 89%
    02:00 +20°C° 0 mm 3 mps 762 mmHg 90%
    03:00 +20°C° 0 mm 3 mps 762 mmHg 91%
    04:00 +20°C° 0 mm 3 mps 761 mmHg 92%
    05:00 +20°C° 0 mm 3 mps 762 mmHg 89%
    06:00 +21°C° 0 mm 3 mps 762 mmHg 85%
    07:00 +21°C° 0 mm 3 mps 763 mmHg 82%
    08:00 +24°C° 0 mm 3 mps 762 mmHg 70%
    09:00 +27°C° 0 mm 4 mps 762 mmHg 57%
    10:00 +29°C° 0 mm 4 mps 762 mmHg 44%
    11:00 +30°C° 0 mm 4 mps 761 mmHg 41%
    12:00 +32°C° 0 mm 4 mps 761 mmHg 37%
    13:00 +33°C° 0 mm 5 mps 760 mmHg 34%
    14:00 +30°C° 0 mm 5 mps 759 mmHg 39%
    15:00 +29°C° 0 mm 5 mps 759 mmHg 44%
    16:00 +28°C° 0 mm 5 mps 759 mmHg 49%
    17:00 +26°C° 1.4 mm 5 mps 759 mmHg 60%
    18:00 +23°C° 1.4 mm 5 mps 759 mmHg 70%
    19:00 +21°C° 1.4 mm 4 mps 760 mmHg 81%
    20:00 +21°C° 0.2 mm 4 mps 760 mmHg 83%
    21:00 +21°C° 0.2 mm 5 mps 760 mmHg 84%
    22:00 +21°C° 0.2 mm 5 mps 761 mmHg 86%
    23:00 +20°C° 0 mm 4 mps 761 mmHg 87%

    23 September, Saturday

    Time Temperature Precipitation Wind Pressure Humidity
    00:00 +20°C° 0 mm 4 mps 761 mmHg 88%
    01:00 +19°C° 0 mm 4 mps 760 mmHg 89%
    02:00 +19°C° 0 mm 4 mps 760 mmHg 89%
    03:00 +18°C° 0 mm 3 mps 760 mmHg 90%
    04:00 +18°C° 0 mm 3 mps 760 mmHg 90%
    05:00 +19°C° 0 mm 4 mps 760 mmHg 87%
    06:00 +19°C° 0 mm 4 mps 761 mmHg 85%
    07:00 +20°C° 0 mm 4 mps 761 mmHg 82%
    08:00 +23°C° 0 mm 4 mps 761 mmHg 68%
    09:00 +26°C° 0 mm 4 mps 760 mmHg 55%
    10:00 +29°C° 0 mm 4 mps 760 mmHg 41%
    11:00 +32°C° 0 mm 5 mps 759 mmHg 36%
    12:00 +34°C° 0 mm 5 mps 759 mmHg 32%
    13:00 +36°C° 0 mm 6 mps 758 mmHg 27%
    14:00 +34°C° 0 mm 6 mps 757 mmHg 32%
    15:00 +33°C° 0 mm 7 mps 757 mmHg 38%
    16:00 +32°C° 0 mm 7 mps 756 mmHg 43%
    17:00 +29°C° 0 mm 7 mps 757 mmHg 49%
    18:00 +28°C° 0 mm 7 mps 757 mmHg 55%
    19:00 +26°C° 0 mm 6 mps 758 mmHg 61%
    20:00 +26°C° 0 mm 6 mps 758 mmHg 63%
    21:00 +24°C° 0 mm 6 mps 758 mmHg 65%
    22:00 +23°C° 0 mm 6 mps 758 mmHg 66%
    23:00 +23°C° 0 mm 5 mps 758 mmHg 66%

    24 September, Sunday

    Time Temperature Precipitation Wind Pressure Humidity
    00:00 +23°C° 0 mm 5 mps 758 mmHg 65%
    01:00 +22°C° 0 mm 5 mps 757 mmHg 64%
    02:00 +22°C° 0 mm 4 mps 757 mmHg 64%
    03:00 +21°C° 0 mm 4 mps 757 mmHg 64%
    04:00 +21°C° 0 mm 4 mps 757 mmHg 64%
    05:00 +22°C° 0 mm 4 mps 757 mmHg 59%
    06:00 +23°C° 0 mm 4 mps 758 mmHg 54%
    07:00 +25°C° 0 mm 5 mps 758 mmHg 49%
    08:00 +28°C° 0 mm 5 mps 758 mmHg 40%
    09:00 +32°C° 0 mm 6 mps 758 mmHg 31%
    10:00 +35°C° 0 mm 6 mps 758 mmHg 22%
    11:00 +36°C° 0 mm 6 mps 757 mmHg 20%
    12:00 +39°C° 0 mm 6 mps 756 mmHg 19%
    13:00 +40°C° 0 mm 7 mps 756 mmHg 17%
    14:00 +39°C° 0 mm 6 mps 756 mmHg 19%
    15:00 +39°C° 0 mm 6 mps 756 mmHg 21%
    16:00 +38°C° 0 mm 6 mps 755 mmHg 22%
    17:00 +35°C° 0 mm 6 mps 756 mmHg 27%
    18:00 +33°C° 0 mm 5 mps 757 mmHg 32%
    19:00 +30°C° 0 mm 5 mps 758 mmHg 37%
    20:00 +29°C° 0 mm 4 mps 758 mmHg 40%
    21:00 +28°C° 0 mm 4 mps 758 mmHg 42%
    22:00 +27°C° 0 mm 4 mps 759 mmHg 45%
    23:00 +27°C° 0 mm 4 mps 758 mmHg 46%

    25 September, Monday

    Time Temperature Precipitation Wind Pressure Humidity
    00:00 +27°C° 0 mm 4 mps 758 mmHg 47%
    01:00 +26°C° 0 mm 4 mps 758 mmHg 48%
    02:00 +26°C° 0 mm 5 mps 758 mmHg 51%
    03:00 +25°C° 0 mm 5 mps 758 mmHg 54%
    04:00 +23°C° 0 mm 5 mps 758 mmHg 58%
    05:00 +25°C° 0 mm 4 mps 758 mmHg 55%
    06:00 +26°C° 0 mm 4 mps 759 mmHg 52%
    07:00 +26°C° 0 mm 4 mps 760 mmHg 48%
    08:00 +29°C° 0 mm 4 mps 760 mmHg 40%
    09:00 +32°C° 0 mm 4 mps 760 mmHg 31%
    10:00 +35°C° 0 mm 4 mps 760 mmHg 22%
    11:00 +36°C° 0 mm 4 mps 760 mmHg 20%
    12:00 +38°C° 0 mm 4 mps 759 mmHg 19%
    13:00 +40°C° 0 mm 5 mps 758 mmHg 17%
    14:00 +39°C° 0 mm 5 mps 758 mmHg 20%
    15:00 +37°C° 0 mm 5 mps 758 mmHg 24%
    16:00 +36°C° 0 mm 5 mps 757 mmHg 27%
    17:00 +34°C° 0 mm 6 mps 758 mmHg 34%
    18:00 +32°C° 0 mm 6 mps 758 mmHg 40%
    19:00 +28°C° 0 mm 6 mps 758 mmHg 47%
    20:00 +28°C° 0 mm 5 mps 759 mmHg 48%
    21:00 +27°C° 0 mm 5 mps 759 mmHg 50%
    22:00 +27°C° 0 mm 5 mps 760 mmHg 51%
    23:00 +26°C° 0 mm 4 mps 760 mmHg 51%
    Show more